Time,TemperatureF,DewpointF,PressureIn,WindDirection,WindDirectionDegrees,WindSpeedMPH,WindSpeedGustMPH,Humidity,HourlyPrecipIn,Conditions,Clouds,dailyrainin,SoftwareType,DateUTC
2013-03-20 00:06:00,30.5,22.0,30.09,South,187,8.0,12.0,71,0.00,,,0.00,weatherlink.com 1.10,2013-03-20 04:06:00,
2013-03-20 00:21:00,30.4,22.0,30.09,South,183,10.0,13.0,70,0.00,,,0.00,weatherlink.com 1.10,2013-03-20 04:21:00,
2013-03-20 00:36:00,30.3,21.0,30.09,South,185,9.0,15.0,68,0.00,,,0.00,weatherlink.com 1.10,2013-03-20 04:36:00,
2013-03-20 00:51:00,30.3,21.0,30.09,South,186,6.0,13.0,68,0.00,,,0.00,weatherlink.com 1.10,2013-03-20 04:51:00,
2013-03-20 01:06:00,30.3,19.0,30.08,WSW,243,8.0,12.0,64,0.00,,,0.00,weatherlink.com 1.10,2013-03-20 05:06:00,
2013-03-20 01:22:00,30.3,19.0,30.08,SSW,192,7.0,13.0,64,0.00,,,0.00,weatherlink.com 1.10,2013-03-20 05:22:00,
2013-03-20 01:36:00,30.0,20.0,30.08,South,185,10.0,15.0,66,0.00,,,0.00,weatherlink.com 1.10,2013-03-20 05:36:00,
2013-03-20 01:51:00,29.8,19.0,30.08,South,185,5.0,12.0,65,0.00,,,0.00,weatherlink.com 1.10,2013-03-20 05:51:00,
2013-03-20 02:06:00,29.5,19.0,30.07,South,189,9.0,11.0,66,0.00,,,0.00,weatherlink.com 1.10,2013-03-20 06:06:00,
2013-03-20 02:21:00,29.3,19.0,30.07,SSW,194,6.0,16.0,66,0.00,,,0.00,weatherlink.com 1.10,2013-03-20 06:21:00,
2013-03-20 02:36:00,28.9,20.0,30.07,SSW,202,5.0,10.0,68,0.00,,,0.00,weatherlink.com 1.10,2013-03-20 06:36:00,
2013-03-20 02:51:00,28.5,20.0,30.06,South,186,4.0,14.0,69,0.00,,,0.00,weatherlink.com 1.10,2013-03-20 06:51:00,
2013-03-20 03:07:00,27.9,20.0,30.06,South,184,6.0,9.0,72,0.00,,,0.00,weatherlink.com 1.10,2013-03-20 07:07:00,
2013-03-20 03:22:00,27.6,20.0,30.04,South,180,7.0,9.0,74,0.00,,,0.00,weatherlink.com 1.10,2013-03-20 07:22:00,
2013-03-20 03:37:00,27.3,20.0,30.05,South,183,6.0,10.0,75,0.00,,,0.00,weatherlink.com 1.10,2013-03-20 07:37:00,
2013-03-20 03:52:00,27.0,21.0,30.04,South,173,5.0,9.0,77,0.00,,,0.00,weatherlink.com 1.10,2013-03-20 07:52:00,
2013-03-20 04:07:00,27.1,21.0,30.04,South,181,7.0,11.0,77,0.00,,,0.00,weatherlink.com 1.10,2013-03-20 08:07:00,
2013-03-20 04:22:00,26.7,20.0,30.04,South,184,5.0,10.0,77,0.00,,,0.00,weatherlink.com 1.10,2013-03-20 08:22:00,
2013-03-20 04:37:00,26.7,20.0,30.03,SSW,198,7.0,11.0,77,0.00,,,0.00,weatherlink.com 1.10,2013-03-20 08:37:00,
2013-03-20 04:52:00,26.6,20.0,30.03,South,180,8.0,11.0,76,0.00,,,0.00,weatherlink.com 1.10,2013-03-20 08:52:00,
2013-03-20 05:07:00,26.4,20.0,30.02,South,185,14.0,14.0,77,0.00,,,0.00,weatherlink.com 1.10,2013-03-20 09:07:00,
2013-03-20 05:22:00,26.2,21.0,30.02,South,188,9.0,12.0,79,0.00,,,0.00,weatherlink.com 1.10,2013-03-20 09:22:00,
2013-03-20 05:37:00,26.1,20.0,30.02,South,183,9.0,13.0,79,0.00,,,0.00,weatherlink.com 1.10,2013-03-20 09:37:00,
2013-03-20 05:52:00,26.0,20.0,30.02,South,186,10.0,12.0,79,0.00,,,0.00,weatherlink.com 1.10,2013-03-20 09:52:00,
2013-03-20 06:07:00,25.7,20.0,30.02,South,180,10.0,12.0,80,0.00,,,0.00,weatherlink.com 1.10,2013-03-20 10:07:00,
2013-03-20 06:22:00,25.8,20.0,30.02,South,180,8.0,13.0,80,0.00,,,0.00,weatherlink.com 1.10,2013-03-20 10:22:00,
2013-03-20 06:37:00,25.6,21.0,30.02,South,186,8.0,12.0,81,0.00,,,0.00,weatherlink.com 1.10,2013-03-20 10:37:00,
2013-03-20 06:52:00,25.3,21.0,30.02,SSW,196,6.0,13.0,82,0.00,,,0.00,weatherlink.com 1.10,2013-03-20 10:52:00,
2013-03-20 07:07:00,25.1,19.0,30.03,SSW,200,9.0,12.0,78,0.00,,,0.00,weatherlink.com 1.10,2013-03-20 11:07:00,
2013-03-20 07:22:00,24.9,19.0,30.03,South,179,8.0,12.0,78,0.00,,,0.00,weatherlink.com 1.10,2013-03-20 11:22:00,
2013-03-20 07:37:00,24.5,19.0,30.03,SSW,193,10.0,12.0,79,0.00,,,0.00,weatherlink.com 1.10,2013-03-20 11:37:00,
2013-03-20 07:52:00,24.3,19.0,30.04,SSW,192,5.0,13.0,80,0.00,,,0.00,weatherlink.com 1.10,2013-03-20 11:52:00,
2013-03-20 08:07:00,24.2,19.0,30.04,SSW,197,7.0,12.0,79,0.00,,,0.00,weatherlink.com 1.10,2013-03-20 12:07:00,
2013-03-20 08:22:00,24.3,19.0,30.04,SSW,207,6.0,14.0,79,0.00,,,0.00,weatherlink.com 1.10,2013-03-20 12:22:00,
2013-03-20 08:37:00,24.4,18.0,30.04,SSW,194,11.0,17.0,78,0.00,,,0.00,weatherlink.com 1.10,2013-03-20 12:37:00,
2013-03-20 08:52:00,24.5,18.0,30.05,South,190,9.0,12.0,77,0.00,,,0.00,weatherlink.com 1.10,2013-03-20 12:52:00,
2013-03-20 09:07:00,24.4,18.0,30.05,SSW,202,4.0,13.0,77,0.00,,,0.00,weatherlink.com 1.10,2013-03-20 13:07:00,
2013-03-20 09:22:00,24.6,17.0,30.06,SSW,205,7.0,11.0,73,0.00,,,0.00,weatherlink.com 1.10,2013-03-20 13:22:00,
2013-03-20 09:37:00,24.5,17.0,30.06,SSW,204,4.0,12.0,73,0.00,,,0.00,weatherlink.com 1.10,2013-03-20 13:37:00,
2013-03-20 09:52:00,24.9,17.0,30.06,SSW,205,6.0,14.0,73,0.00,,,0.00,weatherlink.com 1.10,2013-03-20 13:52:00,
2013-03-20 10:07:00,25.2,17.0,30.06,SW,232,4.0,7.0,72,0.00,,,0.00,weatherlink.com 1.10,2013-03-20 14:07:00,
2013-03-20 10:22:00,25.1,18.0,30.06,SSW,198,5.0,9.0,73,0.00,,,0.00,weatherlink.com 1.10,2013-03-20 14:22:00,
2013-03-20 10:37:00,24.3,16.0,30.06,South,190,9.0,16.0,70,0.00,,,0.00,weatherlink.com 1.10,2013-03-20 14:37:00,
2013-03-20 10:52:00,25.1,15.0,30.06,SSW,193,6.0,13.0,66,0.00,,,0.00,weatherlink.com 1.10,2013-03-20 14:52:00,
2013-03-20 11:07:00,25.1,15.0,30.06,SSW,198,9.0,16.0,66,0.00,,,0.00,weatherlink.com 1.10,2013-03-20 15:07:00,
2013-03-20 11:22:00,26.0,17.0,30.06,SSW,194,8.0,17.0,68,0.00,,,0.00,weatherlink.com 1.10,2013-03-20 15:22:00,
2013-03-20 11:37:00,25.4,16.0,30.06,South,183,8.0,17.0,68,0.00,,,0.00,weatherlink.com 1.10,2013-03-20 15:37:00,
2013-03-20 11:52:00,26.0,15.0,30.06,South,190,9.0,16.0,63,0.00,,,0.00,weatherlink.com 1.10,2013-03-20 15:52:00,
2013-03-20 12:07:00,26.7,14.0,30.06,SSW,197,8.0,15.0,60,0.00,,,0.00,weatherlink.com 1.10,2013-03-20 16:07:00,
2013-03-20 12:22:00,26.8,18.0,30.06,SSW,205,10.0,20.0,68,0.00,,,0.00,weatherlink.com 1.10,2013-03-20 16:22:00,
2013-03-20 12:53:00,25.6,16.0,30.06,South,182,10.0,18.0,67,0.00,,,0.00,weatherlink.com 1.10,2013-03-20 16:53:00,
2013-03-20 13:08:00,26.7,17.0,30.05,South,189,17.0,17.0,67,0.00,,,0.00,weatherlink.com 1.10,2013-03-20 17:08:00,
2013-03-20 13:23:00,27.0,16.0,30.05,SSW,211,12.0,24.0,63,0.00,,,0.00,weatherlink.com 1.10,2013-03-20 17:23:00,
2013-03-20 13:53:00,27.6,16.0,30.05,SSW,204,10.0,22.0,61,0.00,,,0.00,weatherlink.com 1.10,2013-03-20 17:53:00,
2013-03-20 14:08:00,27.8,16.0,30.04,SSW,209,9.0,21.0,61,0.00,,,0.00,weatherlink.com 1.10,2013-03-20 18:08:00,
2013-03-20 14:23:00,28.5,16.0,30.04,South,182,15.0,17.0,61,0.00,,,0.00,weatherlink.com 1.10,2013-03-20 18:23:00,
2013-03-20 14:38:00,28.0,16.0,30.04,SSW,196,12.0,22.0,62,0.00,,,0.00,weatherlink.com 1.10,2013-03-20 18:38:00,
2013-03-20 14:53:00,27.5,17.0,30.04,SSW,210,10.0,21.0,64,0.00,,,0.00,weatherlink.com 1.10,2013-03-20 18:53:00,
2013-03-20 15:08:00,27.7,15.0,30.03,SSW,192,9.0,20.0,60,0.00,,,0.00,weatherlink.com 1.10,2013-03-20 19:08:00,
2013-03-20 15:23:00,28.4,16.0,30.03,SW,214,5.0,19.0,60,0.00,,,0.00,weatherlink.com 1.10,2013-03-20 19:23:00,
2013-03-20 15:38:00,27.4,15.0,30.03,SSW,194,8.0,21.0,61,0.00,,,0.00,weatherlink.com 1.10,2013-03-20 19:38:00,
2013-03-20 15:53:00,27.1,13.0,30.02,SSW,196,11.0,17.0,55,0.00,,,0.00,weatherlink.com 1.10,2013-03-20 19:53:00,
2013-03-20 16:08:00,26.1,12.0,30.02,SSW,203,11.0,17.0,56,0.00,,,0.00,weatherlink.com 1.10,2013-03-20 20:08:00,
2013-03-20 16:23:00,27.7,15.0,30.02,South,173,13.0,21.0,58,0.00,,,0.00,weatherlink.com 1.10,2013-03-20 20:23:00,
2013-03-20 16:38:00,27.6,14.0,30.02,South,173,10.0,21.0,56,0.00,,,0.00,weatherlink.com 1.10,2013-03-20 20:38:00,
2013-03-20 16:53:00,26.8,14.0,30.02,SSW,200,8.0,17.0,59,0.00,,,0.00,weatherlink.com 1.10,2013-03-20 20:53:00,
2013-03-20 17:08:00,27.3,15.0,30.02,SSW,198,8.0,16.0,59,0.00,,,0.00,weatherlink.com 1.10,2013-03-20 21:08:00,
2013-03-20 17:23:00,28.7,15.0,30.01,SSW,195,14.0,22.0,56,0.00,,,0.00,weatherlink.com 1.10,2013-03-20 21:23:00,
2013-03-20 17:38:00,26.8,13.0,30.02,SSW,194,6.0,17.0,57,0.00,,,0.00,weatherlink.com 1.10,2013-03-20 21:38:00,
2013-03-20 17:53:00,26.6,13.0,30.02,SSW,210,5.0,17.0,57,0.00,,,0.00,weatherlink.com 1.10,2013-03-20 21:53:00,
2013-03-20 18:08:00,27.0,13.0,30.02,SSW,198,9.0,16.0,56,0.00,,,0.00,weatherlink.com 1.10,2013-03-20 22:08:00,
2013-03-20 18:23:00,26.9,13.0,30.02,SSW,198,6.0,17.0,55,0.00,,,0.00,weatherlink.com 1.10,2013-03-20 22:23:00,
2013-03-20 18:38:00,26.9,13.0,30.02,South,187,11.0,11.0,56,0.00,,,0.00,weatherlink.com 1.10,2013-03-20 22:38:00,
2013-03-20 18:53:00,25.8,13.0,30.02,SSW,192,4.0,16.0,58,0.00,,,0.00,weatherlink.com 1.10,2013-03-20 22:53:00,
2013-03-20 19:08:00,25.9,13.0,30.02,South,181,8.0,16.0,59,0.00,,,0.00,weatherlink.com 1.10,2013-03-20 23:08:00,
2013-03-20 19:23:00,25.4,14.0,30.02,SSW,205,5.0,15.0,62,0.00,,,0.00,weatherlink.com 1.10,2013-03-20 23:23:00,
2013-03-20 19:38:00,24.9,14.0,30.02,SSW,194,5.0,15.0,63,0.00,,,0.00,weatherlink.com 1.10,2013-03-20 23:38:00,
2013-03-20 19:53:00,24.8,14.0,30.03,SW,221,6.0,12.0,63,0.00,,,0.00,weatherlink.com 1.10,2013-03-20 23:53:00,
2013-03-20 20:08:00,24.6,14.0,30.03,South,190,6.0,14.0,64,0.00,,,0.00,weatherlink.com 1.10,2013-03-21 00:08:00,
2013-03-20 20:23:00,24.3,14.0,30.03,WSW,245,7.0,10.0,64,0.00,,,0.00,weatherlink.com 1.10,2013-03-21 00:23:00,
2013-03-20 20:38:00,23.9,13.0,30.03,SSW,208,5.0,8.0,64,0.00,,,0.00,weatherlink.com 1.10,2013-03-21 00:38:00,
2013-03-20 20:53:00,23.7,13.0,30.04,SSW,201,4.0,11.0,64,0.00,,,0.00,weatherlink.com 1.10,2013-03-21 00:53:00,
2013-03-20 21:08:00,23.6,13.0,30.03,SSW,204,7.0,12.0,63,0.00,,,0.00,weatherlink.com 1.10,2013-03-21 01:08:00,
2013-03-20 21:23:00,23.7,13.0,30.03,SSW,207,3.0,13.0,65,0.00,,,0.00,weatherlink.com 1.10,2013-03-21 01:23:00,
2013-03-20 21:38:00,23.5,13.0,30.03,SW,224,5.0,11.0,64,0.00,,,0.00,weatherlink.com 1.10,2013-03-21 01:38:00,
2013-03-20 21:53:00,23.4,14.0,30.03,SSW,211,4.0,7.0,67,0.00,,,0.00,weatherlink.com 1.10,2013-03-21 01:53:00,
2013-03-20 22:08:00,23.3,14.0,30.03,WSW,239,2.0,10.0,68,0.00,,,0.00,weatherlink.com 1.10,2013-03-21 02:08:00,
2013-03-20 22:23:00,23.1,15.0,30.03,SSW,194,3.0,6.0,71,0.00,,,0.00,weatherlink.com 1.10,2013-03-21 02:23:00,
2013-03-20 22:38:00,23.0,14.0,30.03,SW,216,4.0,7.0,69,0.00,,,0.00,weatherlink.com 1.10,2013-03-21 02:38:00,
2013-03-20 22:53:00,22.5,15.0,30.02,South,189,3.0,13.0,73,0.00,,,0.00,weatherlink.com 1.10,2013-03-21 02:53:00,
2013-03-20 23:08:00,22.5,14.0,30.02,South,191,3.0,7.0,69,0.00,,,0.00,weatherlink.com 1.10,2013-03-21 03:08:00,
2013-03-20 23:23:00,22.5,14.0,30.03,SW,215,1.0,6.0,71,0.00,,,0.00,weatherlink.com 1.10,2013-03-21 03:23:00,
2013-03-20 23:38:00,22.3,16.0,30.02,WSW,257,0.0,5.0,75,0.00,,,0.00,weatherlink.com 1.10,2013-03-21 03:38:00,
2013-03-20 23:53:00,22.1,16.0,30.02,WSW,245,4.0,7.0,77,0.00,,,0.00,weatherlink.com 1.10,2013-03-21 03:53:00,